Volver al catálogo

NADEZHDA 5

ActivoComunicacionesPO
NORAD 25567·PAYLOAD·🇷🇺 Russia

Lanzado Dec 10, 1998 desde Plesetsk Cosmodrome

Loading…

Próximos Pases (próximas 24 horas)

TLE

ActualizadoSource: Space-Track

Época: Sep 14, 2026, 07:45 UTC

1 25567U 98072A   26257.32297877  .00000048  00000-0  36626-4 0  9997
2 25567  82.9504  22.2517 0025004 217.4883 170.9253 13.72087295389896

Sigue NADEZHDA 5 en tiempo real con AllMySat

Download on the App Store